period_start,C,m1,H,J0,J1,J2,J3,J4,J5,JA,JB,JC,JD,JJ,JK,JN,#
2017-08-15 00:03:42,-0.00,3.75,0.00,27.41,31.59,34.06,13.77,47.74,1018.08,2010.99,2193.00,2240.12,2475.99,599.83,588.03,18.01,0000 0000 0000 0000 000000
2017-08-15 00:08:43,-0.01,3.75,0.00,27.39,31.56,34.04,13.75,47.73,1018.08,2011.00,2193.00,2240.36,2475.99,600.40,588.57,18.06,0000 0000 0000 0000 000000
2017-08-15 00:13:45,-0.01,3.75,0.00,27.37,31.54,34.02,13.76,47.66,1018.07,2011.01,2193.00,2240.51,2475.99,599.78,588.00,18.11,0000 0000 0000 0000 000000
2017-08-15 00:18:46,0.01,3.74,0.00,27.35,31.52,33.99,13.82,47.62,1018.04,2011.09,2193.00,2240.84,2475.99,600.39,588.61,18.16,0000 0000 0000 0000 000000
2017-08-15 00:23:47,0.01,3.75,0.00,27.33,31.50,33.97,13.71,47.60,1017.80,2011.23,2193.00,2240.89,2475.99,600.09,588.13,18.21,0000 0000 0000 0000 000000
2017-08-15 00:28:48,0.05,3.75,0.00,27.30,31.47,33.95,13.77,47.69,1017.60,2011.63,2193.00,2240.93,2475.99,599.73,587.82,18.26,0000 0000 0000 0000 000000
2017-08-15 00:33:49,0.02,3.75,0.00,27.27,31.45,33.94,13.87,47.64,1017.59,2011.92,2193.00,2240.96,2475.99,600.64,588.79,18.31,0000 0000 0000 0000 000000
2017-08-15 00:38:50,-0.00,3.75,0.00,27.25,31.43,33.91,13.74,47.69,1017.56,2011.96,2192.99,2240.96,2476.00,600.02,588.15,18.36,0000 0000 0000 0000 000000
2017-08-15 00:43:52,0.00,3.75,0.00,27.25,31.41,33.89,13.72,47.67,1017.53,2011.99,2192.99,2240.98,2476.02,599.38,587.56,18.41,0000 0000 0000 0000 000000
2017-08-15 00:48:53,0.00,3.75,0.00,27.22,31.39,33.86,13.79,47.73,1017.54,2011.99,2192.99,2240.98,2476.01,599.98,588.20,18.46,0000 0000 0000 0000 000000
2017-08-15 00:53:54,0.00,3.75,0.00,27.20,31.37,33.85,13.78,47.73,1017.55,2012.00,2192.99,2240.99,2476.08,600.32,588.49,18.51,0000 0000 0000 0000 000000
2017-08-15 00:58:55,-0.00,3.75,0.00,27.18,31.36,33.83,13.79,47.61,1017.58,2012.01,2192.99,2240.99,2476.29,600.07,588.37,18.56,0000 0000 0000 0000 000000
2017-08-15 01:03:57,0.00,3.75,0.00,27.16,31.34,33.80,13.79,47.63,1017.38,2012.05,2192.99,2240.99,2476.50,600.12,588.22,18.61,0000 0000 0000 0000 000000
2017-08-15 01:08:58,0.02,3.75,0.00,27.14,31.31,33.78,13.78,47.68,1017.11,2012.23,2192.98,2240.99,2476.69,599.57,587.79,18.66,0000 0000 0000 0000 000000
2017-08-15 01:13:59,0.05,3.75,0.00,27.13,31.30,33.75,13.73,47.63,1017.11,2012.75,2192.97,2241.04,2476.92,599.95,588.00,18.71,0000 0000 0000 0000 000000
2017-08-15 01:19:00,0.01,3.75,0.00,27.11,31.27,33.75,13.74,47.71,1016.91,2012.92,2192.93,2241.02,2476.95,599.95,588.01,18.76,0000 0000 0000 0000 000000
2017-08-15 01:24:02,0.00,3.75,0.00,27.10,31.25,33.71,13.79,47.73,1016.82,2012.95,2192.88,2241.03,2476.95,600.17,588.25,18.81,0000 0000 0000 0000 000000
2017-08-15 01:29:03,0.00,3.75,0.00,27.07,31.24,33.70,13.74,47.64,1016.72,2012.99,2192.82,2241.08,2476.97,600.08,588.05,18.86,0000 0000 0000 0000 000000
2017-08-15 01:34:04,0.01,3.75,0.00,27.06,31.22,33.68,13.75,47.67,1016.88,2012.99,2192.32,2241.12,2476.98,600.13,588.20,18.91,0000 0000 0000 0000 000000
2017-08-15 01:39:05,0.01,3.76,0.00,27.05,31.20,33.66,13.77,47.68,1016.75,2012.99,2192.09,2241.09,2476.98,599.93,588.01,18.96,0000 0000 0000 0000 000000
2017-08-15 01:44:07,-0.00,3.75,0.00,27.04,31.17,33.63,13.79,47.73,1016.63,2012.99,2192.04,2241.23,2476.97,600.16,588.18,19.01,0000 0000 0000 0000 000000
2017-08-15 01:49:08,-0.01,3.75,0.00,27.03,31.16,33.61,13.75,47.75,1016.63,2013.01,2192.01,2241.41,2476.99,599.92,588.01,19.06,0000 0000 0000 0000 000000
2017-08-15 01:54:09,-0.00,3.75,0.00,27.02,31.14,33.60,13.82,47.77,1016.62,2013.04,2192.00,2241.57,2476.99,599.99,588.06,19.11,0000 0000 0000 0000 000000
2017-08-15 01:59:10,0.00,3.75,0.00,27.00,31.12,33.58,13.74,47.68,1016.62,2013.14,2192.00,2241.80,2476.99,599.87,587.99,19.16,0000 0000 0000 0000 000000
2017-08-15 02:04:11,0.03,3.76,0.00,27.00,31.10,33.57,13.75,47.72,1016.62,2013.39,2192.00,2241.88,2476.99,600.39,588.46,19.21,0000 0000 0000 0000 000000
2017-08-15 02:09:13,0.01,3.76,0.00,26.99,31.09,33.55,13.79,47.71,1016.62,2013.57,2192.00,2241.90,2476.99,599.99,588.27,19.26,0000 0000 0000 0000 000000
2017-08-15 02:14:14,0.01,3.76,0.00,26.97,31.07,33.53,13.74,47.72,1016.50,2013.81,2191.99,2241.94,2476.99,600.32,588.32,19.31,0000 0000 0000 0000 000000
2017-08-15 02:19:15,0.02,3.76,0.00,26.97,31.05,33.51,13.77,47.69,1016.21,2013.94,2191.98,2241.94,2476.99,600.17,588.01,19.36,0000 0000 0000 0000 000000
2017-08-15 02:24:17,0.00,3.76,0.00,26.95,31.04,33.51,13.71,47.77,1016.13,2013.99,2191.98,2241.98,2476.99,599.98,587.78,19.41,0000 0000 0000 0000 000000
2017-08-15 02:29:18,-0.00,3.76,0.00,26.94,31.02,33.48,13.77,47.72,1015.98,2013.98,2191.97,2241.98,2476.99,599.74,587.64,19.46,0000 0000 0000 0000 000000
2017-08-15 02:34:19,0.00,3.76,0.00,26.92,31.00,33.46,13.72,47.75,1015.72,2013.99,2191.93,2241.99,2476.99,600.25,588.00,19.51,0000 0000 0000 0000 000000
2017-08-15 02:39:21,-0.00,3.76,0.00,26.92,30.99,33.45,13.74,47.76,1016.01,2013.99,2191.91,2241.99,2476.99,599.83,587.68,19.56,0000 0000 0000 0000 000000
2017-08-15 02:44:22,0.00,3.76,0.00,26.92,30.97,33.43,13.79,47.67,1016.02,2013.99,2191.79,2241.99,2476.99,600.23,588.05,19.61,0000 0000 0000 0000 000000
2017-08-15 02:49:24,-0.00,3.76,0.00,26.92,30.96,33.41,13.72,47.73,1015.83,2013.99,2191.66,2241.99,2476.99,600.15,587.97,19.66,0000 0000 0000 0000 000000
2017-08-15 02:54:25,0.01,3.76,0.00,26.92,30.95,33.41,13.73,47.78,1015.65,2014.00,2191.43,2241.99,2476.99,600.08,587.87,19.72,0000 0000 0000 0000 000000
2017-08-15 02:59:26,-0.01,3.76,0.00,26.92,30.94,33.38,13.76,47.73,1015.65,2014.01,2191.65,2241.99,2477.00,600.12,587.81,19.77,0000 0000 0000 0000 000000
2017-08-15 03:04:27,0.01,3.76,0.00,26.91,30.92,33.38,13.78,47.72,1015.64,2014.05,2191.70,2241.99,2477.00,600.12,587.90,19.82,0000 0000 0000 0000 000000
2017-08-15 03:09:29,0.00,3.76,0.00,26.91,30.91,33.36,13.74,47.72,1015.64,2014.15,2191.91,2242.03,2477.03,599.69,587.36,19.87,0000 0000 0000 0000 000000
2017-08-15 03:14:30,-0.01,3.76,0.00,26.91,30.90,33.35,13.77,47.75,1015.64,2014.12,2191.97,2242.03,2477.02,599.82,587.57,19.92,0000 0000 0000 0000 000000
2017-08-15 03:19:31,0.01,3.76,0.00,26.91,30.90,33.34,13.69,47.66,1015.63,2014.12,2191.93,2242.03,2477.01,599.48,587.21,19.97,0000 0000 0000 0000 000000
2017-08-15 03:24:33,0.01,3.76,0.00,26.91,30.88,33.32,13.84,47.73,1015.64,2014.17,2191.74,2242.06,2477.03,600.43,588.18,20.02,0000 0000 0000 0000 000000
2017-08-15 03:29:34,0.01,3.76,0.00,26.90,30.87,33.32,13.82,47.77,1015.63,2014.30,2191.61,2242.09,2477.03,599.99,587.73,20.07,0000 0000 0000 0000 000000
2017-08-15 03:34:35,0.04,3.76,0.00,26.90,30.87,33.31,13.74,47.77,1015.61,2014.56,2191.43,2242.16,2477.02,600.15,587.82,20.12,0000 0000 0000 0000 000000
2017-08-15 03:39:36,-0.01,3.76,0.00,26.90,30.85,33.31,13.79,47.86,1015.49,2014.48,2191.06,2242.09,2477.01,600.29,587.91,20.17,0000 0000 0000 0000 000000
2017-08-15 03:44:37,0.01,3.76,0.00,26.90,30.85,33.30,13.70,47.83,1015.48,2014.59,2191.07,2242.22,2477.01,599.68,587.33,20.22,0000 0000 0000 0000 000000
2017-08-15 03:49:39,0.02,3.76,0.00,26.90,30.85,33.30,13.73,47.77,1015.24,2014.71,2191.01,2242.17,2477.00,599.80,587.32,20.27,0000 0000 0000 0000 000000
2017-08-15 03:54:40,0.02,3.77,0.00,26.90,30.84,33.29,13.76,47.69,1015.17,2014.90,2191.00,2242.16,2477.00,599.71,587.18,20.32,0000 0000 0000 0000 000000
2017-08-15 03:59:41,-0.00,3.77,0.00,26.92,30.82,33.27,13.69,47.75,1015.21,2014.86,2191.00,2242.20,2477.00,599.83,587.32,20.37,0000 0000 0000 0000 000000
2017-08-15 04:04:42,0.00,3.77,0.00,26.92,30.82,33.27,13.77,47.73,1015.24,2014.94,2190.98,2242.31,2477.00,599.83,587.23,20.42,0000 0000 0000 0000 000000
2017-08-15 04:09:44,0.00,3.77,0.00,26.92,30.82,33.26,13.73,47.81,1015.16,2014.95,2190.82,2242.38,2477.00,599.98,587.43,20.47,0000 0000 0000 0000 000000
2017-08-15 04:14:45,0.00,3.77,0.00,26.92,30.82,33.26,13.66,47.86,1015.15,2014.97,2190.52,2242.49,2477.00,599.86,587.32,20.52,0000 0000 0000 0000 000000
2017-08-15 04:19:46,0.01,3.77,0.00,26.88,30.81,33.27,13.76,47.94,1015.13,2014.97,2190.05,2242.39,2477.00,600.07,587.51,20.57,0000 0000 0000 0000 000000
2017-08-15 04:24:47,0.04,3.77,0.00,26.84,30.80,33.28,13.75,47.94,1015.06,2014.99,2189.46,2242.06,2476.94,600.19,587.76,20.62,0000 0000 0000 0000 000000
2017-08-15 04:29:49,0.01,3.77,0.00,26.80,30.80,33.29,13.74,47.81,1015.07,2014.99,2189.06,2242.01,2476.88,600.10,587.73,20.67,0000 0000 0000 0000 000000
2017-08-15 04:34:50,0.00,3.77,0.00,26.80,30.78,33.27,13.71,47.87,1014.88,2014.99,2189.00,2242.01,2476.80,599.58,587.13,20.72,0000 0000 0000 0000 000000
2017-08-15 04:39:51,0.00,3.77,0.00,26.79,30.77,33.25,13.74,47.85,1014.71,2014.99,2189.00,2242.01,2476.60,600.12,587.60,20.77,0000 0000 0000 0000 000000
2017-08-15 04:44:52,-0.01,3.77,0.00,26.78,30.76,33.23,13.77,47.99,1014.66,2015.00,2188.99,2242.03,2476.78,599.93,587.32,20.82,0000 0000 0000 0000 000000
2017-08-15 04:49:54,0.01,3.77,0.00,26.79,30.75,33.21,13.82,47.88,1014.66,2015.00,2188.73,2242.09,2476.79,600.67,587.99,20.87,0000 0000 0000 0000 000000
2017-08-15 04:54:55,0.01,3.77,0.00,26.79,30.74,33.19,13.71,48.02,1014.63,2015.01,2188.28,2242.14,2476.78,599.70,587.04,20.92,0000 0000 0000 0000 000000
2017-08-15 04:59:56,0.00,3.77,0.00,26.79,30.72,33.17,13.74,47.93,1014.66,2015.03,2188.08,2242.24,2476.78,599.96,587.36,20.97,0000 0000 0000 0000 000000
2017-08-15 05:04:58,0.01,3.77,0.00,26.80,30.72,33.16,13.72,47.89,1014.65,2015.06,2188.01,2242.31,2476.65,600.20,587.56,21.02,0000 0000 0000 0000 000000
2017-08-15 05:09:59,-0.01,3.77,0.00,26.79,30.70,33.15,13.69,47.89,1014.65,2015.18,2188.00,2242.76,2476.83,600.12,587.30,21.07,0000 0000 0000 0000 000000
2017-08-15 05:15:00,0.02,3.77,0.00,26.71,30.70,33.17,13.79,47.85,1014.66,2015.42,2187.99,2242.88,2476.92,600.15,587.61,21.12,0000 0000 0000 0000 000000
2017-08-15 05:20:01,0.02,3.77,0.00,26.61,30.67,33.21,13.79,47.81,1014.66,2015.52,2187.84,2242.96,2476.88,599.95,587.67,21.17,0000 0000 0000 0000 000000
2017-08-15 05:25:02,0.04,3.77,0.00,26.57,30.66,33.21,13.81,47.86,1014.65,2015.91,2187.59,2242.99,2476.96,600.31,588.07,21.22,0000 0000 0000 0000 000000
2017-08-15 05:30:03,0.01,3.78,0.00,26.57,30.65,33.17,13.75,47.81,1014.38,2015.97,2187.17,2242.99,2476.97,600.30,587.96,21.27,0000 0000 0000 0000 000000
2017-08-15 05:35:05,0.00,3.78,0.00,26.55,30.62,33.13,13.77,47.83,1014.22,2015.98,2187.02,2242.99,2476.98,600.07,587.53,21.32,0000 0000 0000 0000 000000
2017-08-15 05:40:06,0.00,3.78,0.00,26.55,30.60,33.11,13.78,47.88,1014.19,2015.99,2187.01,2242.99,2476.99,599.81,587.43,21.37,0000 0000 0000 0000 000000
2017-08-15 05:45:07,0.00,3.78,0.00,26.56,30.58,33.06,13.76,47.92,1014.20,2015.99,2187.00,2243.00,2476.99,599.95,587.47,21.42,0000 0000 0000 0000 000000
2017-08-15 05:50:09,0.00,3.78,0.00,26.56,30.57,33.03,13.84,47.83,1014.18,2015.99,2186.97,2243.04,2476.99,600.31,587.62,21.47,0000 0000 0000 0000 000000
2017-08-15 05:55:10,-0.01,3.78,0.00,26.48,30.55,33.04,13.72,47.89,1014.17,2015.99,2186.87,2243.25,2476.99,599.97,587.70,21.52,0000 0000 0000 0000 000000
2017-08-15 06:00:11,-0.01,3.77,0.00,26.36,30.53,33.11,13.74,47.86,1014.17,2016.01,2186.50,2243.78,2476.99,599.97,587.89,21.57,0000 0000 0000 0000 000000
2017-08-15 06:05:13,0.01,3.78,0.00,26.25,30.50,33.22,13.77,47.88,1014.17,2016.02,2186.08,2243.95,2476.99,599.82,588.02,21.62,0000 0000 0000 0000 000000
2017-08-15 06:10:14,0.02,3.78,0.00,26.10,30.46,33.18,13.75,47.97,1014.17,2016.15,2186.01,2243.99,2477.01,599.72,588.22,21.67,0000 0000 0000 0000 000000
2017-08-15 06:15:15,0.04,3.78,0.00,26.01,30.43,33.16,13.80,47.94,1014.14,2016.43,2186.00,2243.99,2477.00,600.11,588.76,21.72,0000 0000 0000 0000 000000
2017-08-15 06:20:16,0.03,3.78,0.00,26.05,30.39,33.06,13.82,48.03,1014.04,2016.92,2186.00,2244.01,2477.15,600.42,588.81,21.77,0000 0000 0000 0000 000000
2017-08-15 06:25:17,-0.02,3.78,0.00,26.07,30.36,32.98,13.77,48.04,1013.77,2016.99,2185.99,2244.13,2477.58,599.60,587.83,21.82,0000 0000 0000 0000 000000
2017-08-15 06:30:19,-0.02,3.78,0.00,26.09,30.33,32.88,13.79,48.17,1013.70,2016.99,2185.96,2244.56,2477.89,600.09,588.22,21.87,0000 0000 0000 0000 000000
2017-08-15 06:35:19,0.00,3.78,0.00,26.13,30.30,32.72,13.77,48.23,1013.69,2016.99,2185.73,2244.85,2477.93,599.70,588.03,21.92,0000 0000 0000 0000 000000
2017-08-15 06:40:21,0.01,3.78,0.00,26.18,30.27,32.60,13.76,48.13,1013.69,2016.99,2185.20,2244.94,2477.92,599.97,588.00,21.97,0000 0000 0000 0000 000000
2017-08-15 06:45:22,0.00,3.78,0.00,26.27,30.27,32.55,13.74,48.22,1013.69,2017.00,2185.03,2244.96,2477.92,600.17,587.97,22.02,0000 0000 0000 0000 000000
2017-08-15 06:50:23,0.00,3.78,0.00,26.37,30.27,32.55,13.75,48.34,1013.69,2017.01,2185.00,2244.98,2477.87,599.78,587.42,22.07,0000 0000 0000 0000 000000
2017-08-15 06:55:25,0.01,3.78,0.00,26.49,30.27,32.56,13.79,48.31,1013.69,2017.01,2184.98,2244.97,2477.54,600.49,587.80,22.12,0000 0000 0000 0000 000000
2017-08-15 07:00:26,0.02,3.78,0.00,26.59,30.29,32.60,13.70,48.27,1013.65,2017.00,2184.67,2244.93,2477.19,600.02,587.14,22.17,0000 0000 0000 0000 000000
2017-08-15 07:05:27,0.01,3.78,0.00,26.70,30.31,32.64,13.79,48.33,1013.54,2017.00,2184.07,2244.86,2477.01,600.10,587.15,22.22,0000 0000 0000 0000 000000
2017-08-15 07:10:29,0.01,3.78,0.00,26.81,30.35,32.69,13.73,48.25,1013.54,2017.00,2184.00,2244.60,2477.00,599.97,586.59,22.27,0000 0000 0000 0000 000000
2017-08-15 07:15:30,0.04,3.78,0.00,26.90,30.38,32.78,13.74,48.62,1013.54,2016.98,2183.62,2244.06,2476.88,600.47,587.01,22.32,0000 0000 0000 0000 000000
2017-08-15 07:20:31,0.02,3.79,0.00,26.98,30.43,32.84,13.64,48.19,1013.54,2016.90,2183.04,2244.00,2476.36,599.84,586.29,22.37,0000 0000 0000 0000 000000
2017-08-15 07:25:33,-0.05,3.78,0.00,27.06,30.47,32.90,13.67,48.17,1013.56,2016.46,2182.95,2244.00,2476.01,600.05,586.29,22.42,0000 0000 0000 0000 000000
2017-08-15 07:30:34,-0.00,3.78,0.00,27.14,30.52,32.98,13.72,48.25,1013.28,2016.07,2182.18,2243.99,2475.98,599.95,585.83,22.47,0000 0000 0000 0000 000000
2017-08-15 07:35:35,0.03,3.78,0.00,27.20,30.58,33.06,13.72,48.30,1013.67,2016.00,2181.99,2243.71,2475.54,600.33,586.31,22.52,0000 0000 0000 0000 000000
2017-08-15 07:40:36,0.05,3.79,0.00,27.27,30.63,33.14,13.71,48.23,1013.52,2016.00,2181.41,2243.13,2475.03,600.33,586.11,22.57,0000 0000 0000 0000 000000
2017-08-15 07:45:37,0.01,3.79,0.00,27.31,30.69,33.22,13.66,48.03,1013.55,2015.98,2181.00,2243.03,2475.00,599.76,585.47,22.62,0000 0000 0000 0000 000000
2017-08-15 07:50:39,-0.02,3.79,0.00,27.36,30.75,33.30,13.67,48.17,1013.66,2015.61,2180.56,2243.00,2474.50,599.85,585.58,22.67,0000 0000 0000 0000 000000
2017-08-15 07:55:40,-0.02,3.79,0.00,27.41,30.81,33.38,13.67,48.05,1013.69,2015.06,2180.01,2242.91,2474.03,599.81,585.63,22.72,0000 0000 0000 0000 000000
2017-08-15 08:00:41,0.05,3.79,0.00,27.44,30.87,33.47,13.70,48.11,1013.69,2015.00,2179.55,2242.22,2473.96,600.15,585.63,22.77,0000 0000 0000 0000 000000
2017-08-15 08:05:43,-0.00,3.79,0.00,27.46,30.92,33.53,13.69,48.02,1013.69,2014.77,2178.93,2241.99,2473.26,600.00,585.57,22.82,0000 0000 0000 0000 000000
2017-08-15 08:10:44,0.10,3.79,0.00,27.49,30.98,33.62,13.62,47.98,1013.69,2014.20,2176.40,2241.08,2472.09,599.69,585.26,22.87,0000 0000 0000 0000 000000
2017-08-15 08:15:45,0.08,3.79,0.00,27.51,31.04,33.69,13.70,48.04,1013.70,2014.00,2175.54,2240.36,2471.25,599.94,585.37,22.92,0000 0000 0000 0000 000000
2017-08-15 08:20:46,0.01,3.80,0.00,27.52,31.09,33.80,13.71,48.02,1013.69,2013.99,2174.99,2240.00,2470.97,599.94,585.32,22.97,0000 0000 0000 0000 000000
2017-08-15 08:25:47,0.01,3.80,0.00,27.54,31.14,33.91,13.73,48.11,1013.69,2013.74,2174.30,2239.98,2470.27,600.18,585.48,23.02,0000 0000 0000 0000 000000
2017-08-15 08:30:49,-0.04,3.80,0.00,27.56,31.20,34.04,13.75,47.97,1013.69,2013.14,2173.99,2239.73,2470.01,599.90,585.29,23.07,0000 0000 0000 0000 000000
2017-08-15 08:35:50,0.06,3.80,0.00,27.57,31.25,34.15,13.75,48.08,1013.69,2013.00,2173.20,2239.07,2469.62,600.08,585.27,23.12,0000 0000 0000 0000 000000
2017-08-15 08:40:51,0.04,3.80,0.00,27.58,31.29,34.19,13.61,48.08,1013.68,2013.00,2172.15,2238.98,2468.98,600.06,585.32,23.17,0000 0000 0000 0000 000000
2017-08-15 08:45:53,0.06,3.80,0.00,27.59,31.34,34.26,13.63,48.05,1013.44,2012.91,2171.38,2238.49,2468.29,600.08,585.18,23.22,0000 0000 0000 0000 000000
2017-08-15 08:50:54,-0.05,3.80,0.00,27.60,31.38,34.36,13.72,48.08,1013.34,2012.40,2170.99,2238.04,2468.01,599.98,585.03,23.27,0000 0000 0000 0000 000000
2017-08-15 08:55:55,0.00,3.80,0.00,27.60,31.42,34.40,13.80,48.31,1013.49,2012.04,2170.33,2238.00,2467.98,600.34,585.44,23.32,0000 0000 0000 0000 000000
2017-08-15 09:00:57,0.02,3.80,0.00,27.60,31.46,34.48,13.73,48.23,1013.46,2012.01,2169.99,2238.00,2467.55,600.05,585.18,23.37,0000 0000 0000 0000 000000
2017-08-15 09:05:58,0.02,3.80,0.00,27.60,31.50,34.54,13.66,48.31,1013.22,2011.99,2169.52,2237.92,2467.01,599.90,584.93,23.43,0000 0000 0000 0000 000000
2017-08-15 09:11:00,0.01,3.80,0.00,27.61,31.53,34.58,13.72,48.05,1013.48,2011.98,2169.01,2237.81,2466.99,599.98,585.05,23.48,0000 0000 0000 0000 000000
2017-08-15 09:16:01,0.01,3.81,0.00,27.61,31.56,34.63,13.73,48.09,1013.54,2011.85,2168.73,2237.42,2466.88,600.14,585.30,23.53,0000 0000 0000 0000 000000
2017-08-15 09:21:02,-0.02,3.81,0.00,27.61,31.60,34.64,13.74,48.12,1013.29,2011.30,2168.04,2237.05,2466.27,600.15,585.13,23.58,0000 0000 0000 0000 000000
2017-08-15 09:26:03,-0.00,3.80,0.00,27.60,31.63,34.69,13.71,48.09,1013.22,2011.05,2167.84,2237.00,2466.01,599.85,584.79,23.63,0000 0000 0000 0000 000000
2017-08-15 09:31:04,0.02,3.81,0.00,27.59,31.66,34.72,13.80,48.19,1013.20,2011.01,2167.07,2237.00,2465.97,599.85,584.89,23.68,0000 0000 0000 0000 000000
2017-08-15 09:36:05,0.02,3.81,0.00,27.57,31.68,34.75,13.75,47.95,1013.21,2011.00,2166.72,2236.98,2465.66,600.02,584.99,23.73,0000 0000 0000 0000 000000
2017-08-15 09:41:06,0.05,3.81,0.00,27.57,31.70,34.78,13.74,48.02,1013.20,2010.99,2166.02,2236.68,2465.06,600.32,585.30,23.78,0000 0000 0000 0000 000000
2017-08-15 09:46:08,0.02,3.81,0.00,27.56,31.72,34.78,13.74,48.09,1013.20,2010.98,2165.61,2236.32,2465.00,600.25,585.30,23.83,0000 0000 0000 0000 000000
2017-08-15 09:51:09,0.01,3.81,0.00,27.56,31.75,34.82,13.73,48.27,1013.19,2010.87,2165.01,2236.05,2464.91,600.22,585.35,23.88,0000 0000 0000 0000 000000
2017-08-15 09:56:10,-0.00,3.81,0.00,27.56,31.77,34.83,13.67,48.16,1013.18,2010.56,2164.61,2236.00,2464.49,599.72,584.78,23.93,0000 0000 0000 0000 000000
2017-08-15 10:01:12,-0.02,3.81,0.00,27.55,31.78,34.85,13.73,48.10,1013.15,2010.18,2164.00,2236.00,2464.02,600.00,585.04,23.98,0000 0000 0000 0000 000000
2017-08-15 10:06:13,0.04,3.81,0.00,27.54,31.80,34.83,13.75,48.12,1013.19,2010.09,2163.21,2235.77,2463.92,599.93,584.94,24.03,0000 0000 0000 0000 000000
2017-08-15 10:11:14,0.02,3.81,0.00,27.53,31.82,34.82,13.76,48.25,1012.99,2010.01,2162.80,2235.45,2463.31,600.13,585.26,24.08,0000 0000 0000 0000 000000
2017-08-15 10:16:16,0.03,3.82,0.00,27.52,31.82,34.82,13.75,48.18,1012.85,2010.00,2162.07,2235.30,2463.07,600.08,584.98,24.13,0000 0000 0000 0000 000000
2017-08-15 10:21:17,0.01,3.82,0.00,27.52,31.84,34.85,13.76,48.11,1012.78,2010.00,2161.97,2235.14,2463.00,599.97,584.82,24.18,0000 0000 0000 0000 000000
2017-08-15 10:26:19,0.02,3.82,0.00,27.50,31.85,34.82,13.73,48.17,1012.81,2010.00,2161.35,2235.09,2463.00,600.59,585.56,24.23,0000 0000 0000 0000 000000
2017-08-15 10:31:20,0.01,3.82,0.00,27.49,31.86,34.84,13.69,48.22,1012.97,2010.00,2161.01,2235.06,2462.98,599.80,584.75,24.28,0000 0000 0000 0000 000000
2017-08-15 10:36:21,0.03,3.82,0.00,27.47,31.87,34.80,13.75,48.17,1012.87,2010.00,2160.66,2235.01,2462.76,600.03,585.02,24.33,0000 0000 0000 0000 000000
2017-08-15 10:41:22,0.02,3.82,0.00,27.45,31.87,34.82,13.77,48.08,1012.87,2010.00,2160.05,2235.00,2462.38,600.17,585.21,24.38,0000 0000 0000 0000 000000
2017-08-15 10:46:24,0.02,3.82,0.00,27.45,31.87,34.83,13.68,48.02,1012.74,2009.99,2159.66,2235.00,2462.03,599.83,584.74,24.43,0000 0000 0000 0000 000000
2017-08-15 10:51:25,0.01,3.82,0.00,27.45,31.88,34.82,13.74,48.08,1012.71,2009.98,2158.94,2235.00,2462.00,599.90,584.97,24.48,0000 0000 0000 0000 000000
2017-08-15 10:56:26,0.02,3.82,0.00,27.43,31.89,34.80,13.76,48.15,1012.71,2009.98,2158.16,2234.99,2461.97,599.83,584.84,24.53,0000 0000 0000 0000 000000
2017-08-15 11:01:28,0.00,3.82,0.00,27.42,31.90,34.79,13.70,48.13,1012.71,2009.97,2157.99,2234.99,2461.85,599.63,584.72,24.58,0000 0000 0000 0000 000000
2017-08-15 11:06:28,0.04,3.82,0.00,27.40,31.90,34.75,13.73,48.20,1012.71,2009.97,2157.39,2234.99,2461.50,600.08,585.16,24.63,0000 0000 0000 0000 000000
2017-08-15 11:11:30,0.17,3.83,0.00,27.40,31.90,34.74,13.71,48.19,1012.71,2009.98,2155.46,2233.84,2460.34,599.86,585.06,24.68,0000 0000 0000 0000 000000
2017-08-15 11:16:31,0.04,3.84,0.00,27.39,31.90,34.76,13.76,48.13,1012.71,2009.95,2154.11,2233.14,2459.96,599.95,585.01,24.73,0000 0000 0000 0000 000000
2017-08-15 11:21:32,0.01,3.84,0.00,27.37,31.90,34.73,13.78,48.10,1012.71,2009.95,2153.96,2233.10,2459.70,600.16,585.25,24.78,0000 0000 0000 0000 000000
2017-08-15 11:26:33,0.03,3.84,0.00,27.36,31.90,34.76,13.70,48.14,1012.71,2009.94,2153.22,2233.12,2459.32,599.90,585.11,24.83,0000 0000 0000 0000 000000
2017-08-15 11:31:34,0.01,3.84,0.00,27.35,31.90,34.75,13.74,48.19,1012.71,2009.97,2153.00,2233.09,2459.04,600.32,585.47,24.88,0000 0000 0000 0000 000000
2017-08-15 11:36:35,0.02,3.84,0.00,27.35,31.89,34.71,13.75,48.15,1012.71,2009.98,2152.70,2233.11,2459.01,599.98,585.27,24.93,0000 0000 0000 0000 000000
2017-08-15 11:41:37,0.01,3.84,0.00,27.32,31.87,34.69,13.67,48.07,1012.69,2009.97,2152.04,2233.21,2459.00,599.92,585.16,24.98,0000 0000 0000 0000 000000
2017-08-15 11:46:38,0.01,3.84,0.00,27.31,31.87,34.72,13.72,48.05,1012.59,2009.98,2151.96,2233.11,2459.00,599.76,584.90,25.03,0000 0000 0000 0000 000000
2017-08-15 11:51:39,0.03,3.84,0.00,27.30,31.87,34.65,13.70,48.20,1012.67,2009.96,2151.21,2233.05,2458.98,599.81,585.11,25.08,0000 0000 0000 0000 000000
2017-08-15 11:56:40,-0.00,3.84,0.00,27.27,31.87,34.65,13.82,48.27,1012.42,2009.97,2151.00,2233.09,2458.95,600.66,585.70,25.13,0000 0000 0000 0000 000000
2017-08-15 12:01:42,-0.00,3.84,0.00,27.26,31.86,34.64,13.73,48.42,1012.27,2009.99,2150.97,2233.19,2458.92,599.72,584.89,25.18,0000 0000 0000 0000 000000
2017-08-15 12:06:43,0.03,3.84,0.00,27.25,31.85,34.63,13.72,48.19,1012.22,2009.96,2150.31,2233.19,2458.56,599.88,584.87,25.23,0000 0000 0000 0000 000000
2017-08-15 12:11:44,0.01,3.84,0.00,27.23,31.85,34.62,13.79,48.23,1012.22,2009.98,2150.00,2233.14,2458.26,599.94,585.06,25.28,0000 0000 0000 0000 000000
2017-08-15 12:16:45,-0.01,3.84,0.00,27.22,31.85,34.61,13.74,48.17,1012.22,2009.99,2149.96,2233.45,2458.28,600.03,585.15,25.33,0000 0000 0000 0000 000000
2017-08-15 12:21:46,0.02,3.84,0.00,27.20,31.83,34.60,13.79,48.38,1012.22,2009.99,2149.41,2233.61,2458.09,600.27,585.45,25.38,0000 0000 0000 0000 000000
2017-08-15 12:26:47,-0.00,3.85,0.00,27.20,31.82,34.58,13.74,48.23,1012.08,2009.99,2149.02,2233.88,2458.05,599.83,584.92,25.43,0000 0000 0000 0000 000000
2017-08-15 12:31:49,-0.00,3.84,0.00,27.18,31.82,34.55,13.69,48.21,1011.83,2009.99,2148.99,2233.93,2458.04,599.93,584.97,25.48,0000 0000 0000 0000 000000
2017-08-15 12:36:50,0.01,3.85,0.00,27.17,31.80,34.55,13.76,48.24,1011.85,2009.99,2148.70,2233.93,2458.01,600.33,585.33,25.53,0000 0000 0000 0000 000000
2017-08-15 12:41:51,0.01,3.85,0.00,27.17,31.80,34.54,13.74,48.13,1011.80,2009.99,2148.08,2233.91,2458.00,599.92,584.90,25.58,0000 0000 0000 0000 000000
2017-08-15 12:46:53,0.00,3.85,0.00,27.16,31.80,34.60,13.74,48.08,1011.79,2009.99,2148.00,2233.90,2458.00,599.91,584.83,25.63,0000 0000 0000 0000 000000
2017-08-15 12:51:54,0.01,3.85,0.00,27.15,31.77,34.53,13.75,48.04,1011.81,2009.99,2147.75,2233.94,2458.00,600.30,585.23,25.68,0000 0000 0000 0000 000000
2017-08-15 12:56:55,0.02,3.85,0.00,27.13,31.77,34.52,13.74,48.18,1011.88,2009.99,2147.06,2233.92,2457.99,600.24,585.27,25.73,0000 0000 0000 0000 000000